Content
SEND FEEDBACK

Daily
Averages
Monthly
Summary
United States of America

RAHWAY, NEW JERSEY


Home > North America > United States > New Jersey
Elevation: 20 feet     Latitude: 40 36N     Longitude: 074 16W

WEATHER
 
SELECT A DAY
Number of Records: 189,786;   Date Range: 1/1/95 - 8/30/14
 
SHARE

PRINT THIS DATA

[ ← Previous Day ]
WEATHER ALMANAC - JULY 21, 2013
[ Next Day → ]
[ °C ]   °F
Weather ElementAverageHighLow
Temperature80.9 °F87.1 °F (1:51 pm)77 °F (2:10 am)
Dewpoint65.6 °F73 °F (6:51 am)57.9 °F (11:51 am)
Humidity61.3 %84 % (6:51 am)40 % (11:51 am)
Barometer29.91 in29.96 in (9:51 pm)29.84 in (2:51 am)
Wind Speed5.7 mph10.4 mph (6:51 am)
Wind Gust17.3 mph (10:51 am)
Weather ElementAverage
Visibility10 mi
Wind DirectionESE (115 °)

Weather ElementTotal
Precipitation---
Cooling Degree Days17.1 (Base 65)
Growing Degree Days32.1 (Base 50)
Averaged from 24 records on July 21, 2013
WEATHER CONDITIONS BREAKOUT
WIND DIRECTION BREAKOUT
WEATHER BY HOUR - JULY 21, 2013
[ °C ]   °F
Local TimeTemperatureDewpointHumidityBarometerVisibilityWind DirectionWind SpeedGust SpeedPrecipitationEventsConditions
1:51 AM78.1 °F72.0 °F81 %29.85 in10.0 miSSW (210°)4.6 mphClear
2:10 AM77.0 °F71.6 °F83 %29.85 in10.0 miSW (220°)4.6 mphMostly Cloudy
2:51 AM78.1 °F71.1 °F79 %29.84 in10.0 miSW (220°)4.6 mphMostly Cloudy
3:51 AM79.0 °F71.1 °F77 %29.84 in10.0 miWSW (250°)4.6 mphMostly Cloudy
4:51 AM77.0 °F71.1 °F82 %29.86 in10.0 miWest (260°)5.8 mphMostly Cloudy
5:51 AM77.0 °F71.1 °F82 %29.87 in10.0 miNW (320°)3.5 mphMostly Cloudy
6:51 AM78.1 °F73.0 °F84 %29.88 in10.0 miNorth (10°)10.4 mphMostly Cloudy
7:51 AM78.1 °F62.1 °F58 %29.90 in10.0 miNNE (30°)9.2 mphMostly Cloudy
8:51 AM80.1 °F63.0 °F56 %29.92 in10.0 miNNE (20°)9.2 mphMostly Cloudy
9:51 AM82.0 °F61.0 °F49 %29.92 in10.0 miNNE (30°)9.2 mphMostly Cloudy
10:51 AM84.9 °F60.1 °F43 %29.92 in10.0 miNE (50°)6.9 mph17.3 mphMostly Cloudy
11:51 AM84.9 °F57.9 °F40 %29.93 in10.0 miEast (90°)4.6 mphMostly Cloudy
12:51 PM86.0 °F59.0 °F40 %29.94 in10.0 miENE (60°)4.6 mphMostly Cloudy
1:51 PM87.1 °F61.0 °F41 %29.93 in10.0 miCalmMostly Cloudy
2:51 PM87.1 °F64.0 °F46 %29.93 in10.0 miSE (130°)9.2 mphMostly Cloudy
3:51 PM86.0 °F64.0 °F48 %29.92 in10.0 miSSE (150°)9.2 mphMostly Cloudy
4:51 PM84.0 °F63.0 °F49 %29.92 in10.0 miSE (140°)8.1 mphMostly Cloudy
5:51 PM82.9 °F62.1 °F49 %29.91 in10.0 miSSE (160°)8.1 mphMostly Cloudy
6:51 PM81.0 °F63.0 °F54 %29.92 in10.0 miVariable4.6 mphMostly Cloudy
7:51 PM80.1 °F64.9 °F60 %29.92 in10.0 miSSE (160°)6.9 mphMostly Cloudy
8:51 PM79.0 °F64.9 °F62 %29.94 in10.0 miSSE (150°)4.6 mphMostly Cloudy
9:51 PM79.0 °F66.9 °F66 %29.96 in10.0 miCalmMostly Cloudy
10:51 PM78.1 °F69.1 °F74 %29.96 in10.0 miEast (100°)3.5 mphMostly Cloudy
11:51 PM78.1 °F66.9 °F68 %29.95 in10.0 miCalmMostly Cloudy
Hourly data recorded from KEWR, located miles away from Rahway, New Jersey







STORIES FROM OUR PARTNERS